Weather History for Imperial, NE

Change the Weather History Date:

Monday, April 14, 2014

  Actual Average Record
Temperature  
Mean Temperature 34 °F 48 °F  
Max Temperature 44 °F 62 °F 87 °F (1908)
Min Temperature 23 °F 34 °F 10 °F (1997)
Degree Days  
Heating Degree Days 31 17  
Month to date heating degree days 256 268  
Cooling Degree Days 0 0  
Month to date cooling degree days 0 0  
Year to date cooling degree days 0 0  
Moisture  
Dew Point 20 °F    
Average Humidity 59    
Maximum Humidity 81    
Minimum Humidity 36    
Precipitation  
Precipitation 0.00 in 0.07 in 1.62 in (1927)
Sea Level Pressure  
Sea Level Pressure 30.29 in    
Wind  
Wind Speed 14 mph (NW)    
Max Wind Speed 25 mph    
Max Gust Speed 32 mph    
Visibility 10 miles    
Events      
T = Trace of Precipitation, MM = Missing Value Source: NWS Daily Summary

Daily Weather History Graph

Daily Weather History Graph

Search for Another Location

Airport:

Trip Planner

Search our weather history database for the weather conditions in past years. The results will help you decide how hot, cold, wet, or windy it might be!

Date:

Astronomy

Apr. 14, 2014 Rise Set
Actual Time 6:09 AM MDT 7:24 PM MDT
Civil Twilight 5:41 AM MDT 7:52 PM MDT
Nautical Twilight 5:07 AM MDT 8:26 PM MDT
Astronomical Twilight 4:32 AM MDT 9:02 PM MDT
Moon 7:05 PM MDT (4/14) 5:42 AM MDT (4/14)
Length of Visible Light 14h 11m
Length of Day
13h 15m
Full, 100% of the Moon is Illuminated
Apr 14
Full
Apr 15
Full
Apr 22
Last Quarter
Apr 29
New
May 6
First Quarter

Hourly Weather History & Observations

Time (MDT) Temp. Windchill Dew Point Humidity Pressure Visibility Wind Dir Wind Speed Gust Speed Precip Events Conditions
12:53 AM 28.9 °F 16.5 °F 19.0 °F 67% 30.27 in 10.0 mi North 18.4 mph - N/A   Overcast
1:53 AM 28.0 °F 16.1 °F 19.0 °F 69% 30.30 in 10.0 mi North 16.1 mph - N/A   Overcast
2:53 AM 28.4 °F 15.4 °F 17.6 °F 64% 30.21 in 10.0 mi North 19.6 mph - N/A   Overcast
3:53 AM 27.0 °F 16.1 °F 17.1 °F 66% 30.32 in 10.0 mi NNW 12.7 mph - N/A   Overcast
4:53 AM 26.1 °F 15.6 °F 18.0 °F 71% 30.33 in 10.0 mi NW 11.5 mph - N/A   Overcast
5:53 AM 25.0 °F 15.5 °F 16.0 °F 69% 30.35 in 10.0 mi NW 9.2 mph - N/A   Overcast
6:53 AM 24.1 °F 13.1 °F 16.0 °F 71% 30.37 in 10.0 mi WNW 11.5 mph - N/A   Partly Cloudy
7:53 AM 24.1 °F 12.5 °F 19.0 °F 81% 30.38 in 10.0 mi NW 12.7 mph - N/A   Clear
8:53 AM 28.0 °F 17.5 °F 21.0 °F 75% 30.38 in 10.0 mi WNW 12.7 mph - N/A   Clear
9:53 AM 30.9 °F 20.2 °F 21.9 °F 69% 30.36 in 10.0 mi WNW 15.0 mph 21.9 mph N/A   Clear
10:53 AM 33.1 °F 22.6 °F 21.0 °F 61% 30.37 in 10.0 mi NW 16.1 mph - N/A   Clear
11:53 AM 35.6 °F 24.8 °F 21.2 °F 56% 30.26 in 10.0 mi NW 19.6 mph 26.5 mph N/A   Clear
12:53 PM 37.9 °F 28.9 °F 23.0 °F 55% 30.32 in 10.0 mi WNW 16.1 mph 24.2 mph N/A   Clear
1:53 PM 41.0 °F 31.4 °F 19.9 °F 43% 30.29 in 10.0 mi WNW 21.9 mph 27.6 mph N/A   Clear
2:53 PM 43.0 °F 34.8 °F 19.9 °F 40% 30.26 in 10.0 mi WNW 18.4 mph 27.6 mph N/A   Partly Cloudy
3:53 PM 43.0 °F 34.8 °F 18.0 °F 37% 30.24 in 10.0 mi NW 18.4 mph 27.6 mph N/A   Mostly Cloudy
4:53 PM 41.0 °F 32.2 °F 18.0 °F 40% 30.23 in 10.0 mi NW 18.4 mph 29.9 mph N/A   Overcast
5:53 PM 43.0 °F 35.1 °F 18.0 °F 37% 30.22 in 10.0 mi NW 17.3 mph 21.9 mph N/A   Overcast
6:53 PM 41.0 °F 33.1 °F 19.0 °F 41% 30.22 in 10.0 mi NW 15.0 mph - N/A   Clear
7:53 PM 37.0 °F 30.4 °F 19.9 °F 50% 30.24 in 10.0 mi NW 9.2 mph - N/A   Partly Cloudy
8:53 PM 35.1 °F 26.4 °F 23.0 °F 61% 30.25 in 10.0 mi NW 12.7 mph - N/A   Clear
9:53 PM 32.0 °F 26.4 °F 23.0 °F 69% 30.26 in 10.0 mi West 5.8 mph - N/A   Clear
10:53 PM 30.9 °F 26.2 °F 21.9 °F 69% 30.23 in 10.0 mi NW 4.6 mph - N/A   Clear
11:53 PM 28.0 °F 18.6 °F 21.9 °F 78% 30.24 in 10.0 mi WSW 10.4 mph - N/A   Clear